Content
SEND FEEDBACK

Daily
Averages
Monthly
Summary
United States of America

OXLY, MISSOURI


Home > North America > United States > Missouri
Elevation: 372 feet     Latitude: 36 34N     Longitude: 090 49W

WEATHER
 
SELECT A DAY
Number of Records: 121,036;   Date Range: 6/12/09 - 7/21/14
 
SHARE

PRINT THIS DATA

[ ← Previous Day ]
WEATHER ALMANAC - JANUARY 7, 2013
[ Next Day → ]
[ °C ]   °F
Weather ElementAverageHighLow
Temperature33.4 °F44.6 °F (3:15 pm)26.6 °F (2:15 am)
Dewpoint27.2 °F30.2 °F (5:35 pm)24.8 °F (12:35 am)
Humidity80 %100 % (2:35 am)49 % (3:35 pm)
Barometer30.36 in30.46 in (8:15 am)30.23 in (11:35 pm)
Wind Speed4 mph11.5 mph (9:55 am)
Weather ElementAverage
Visibility8.3 mi
Wind DirectionENE (75.3 °)

Weather ElementTotal
Precipitation---
Heating Degree Days29.4 (Base 65)
Averaged from 64 records on January 7, 2013
WEATHER CONDITIONS BREAKOUT
WIND DIRECTION BREAKOUT
WEATHER BY HOUR - JANUARY 7, 2013
[ °C ]   °F
Local TimeTemperatureDewpointHumidityBarometerVisibilityWind DirectionWind SpeedGust SpeedPrecipitationEventsConditions
12:35 AM28.4 °F24.8 °F86 %30.41 in10.0 miNNE (20°)3.5 mphClear
12:55 AM28.4 °F26.6 °F93 %30.41 in10.0 miCalmClear
1:15 AM28.4 °F26.6 °F93 %30.42 in10.0 miENE (60°)3.5 mphClear
1:35 AM28.4 °F26.6 °F93 %30.42 in10.0 miCalmClear
1:55 AM28.4 °F26.6 °F93 %30.42 in10.0 miNNE (30°)3.5 mphClear
2:15 AM26.6 °F24.8 °F93 %30.42 in9.0 miNorth (10°)3.5 mphClear
2:35 AM26.6 °F26.6 °F100 %30.43 in10.0 miNNE (30°)3.5 mphClear
2:55 AM28.4 °F26.6 °F93 %30.42 in10.0 miNE (40°)4.6 mphClear
3:15 AM28.4 °F26.6 °F93 %30.42 in10.0 miNNE (30°)4.6 mphClear
3:35 AM28.4 °F24.8 °F86 %30.42 in10.0 miNNE (20°)4.6 mphClear
3:55 AM26.6 °F24.8 °F93 %30.42 in10.0 miNNE (30°)4.6 mphClear
4:15 AM26.6 °F24.8 °F93 %30.41 in10.0 miNE (40°)4.6 mphClear
4:35 AM26.6 °F24.8 °F93 %30.41 in10.0 miNNE (30°)5.8 mphClear
4:55 AM26.6 °F24.8 °F93 %30.41 in10.0 miNE (40°)4.6 mphClear
5:15 AM26.6 °F24.8 °F93 %30.41 in9.0 miENE (60°)5.8 mphClear
5:35 AM26.6 °F24.8 °F93 %30.41 in6.0 miENE (60°)5.8 mphClear
5:55 AM26.6 °F24.8 °F93 %30.42 in5.0 miENE (70°)5.8 mphClear
6:15 AM26.6 °F26.6 °F100 %30.43 in5.0 miEast (90°)3.5 mphClear
6:35 AM26.6 °F24.8 °F93 %30.44 in5.0 miCalmClear
6:55 AM26.6 °F26.6 °F100 %30.44 in4.0 miNE (50°)5.8 mphClear
7:15 AM26.6 °F24.8 °F93 %30.44 in3.0 miEast (80°)4.6 mphClear
7:35 AM26.6 °F24.8 °F93 %30.45 in3.0 miCalmClear
8:15 AM28.4 °F26.6 °F93 %30.46 in4.0 miCalmClear
8:35 AM30.2 °F26.6 °F86 %30.46 in4.0 miEast (90°)3.5 mphClear
8:55 AM32.0 °F28.4 °F87 %30.46 in5.0 miESE (110°)4.6 mphClear
9:15 AM32.0 °F28.4 °F87 %30.46 in5.0 miESE (120°)4.6 mphClear
9:35 AM32.0 °F28.4 °F87 %30.45 in7.0 miESE (110°)9.2 mphClear
9:55 AM33.8 °F28.4 °F81 %30.45 in7.0 miESE (110°)11.5 mphClear
10:15 AM35.6 °F28.4 °F75 %30.45 in7.0 miESE (110°)11.5 mphClear
10:35 AM35.6 °F28.4 °F75 %30.44 in7.0 miESE (110°)11.5 mphClear
10:55 AM37.4 °F26.6 °F65 %30.42 in9.0 miESE (110°)11.5 mphClear
11:15 AM37.4 °F26.6 °F65 %30.41 in10.0 miESE (120°)6.9 mphClear
11:35 AM37.4 °F26.6 °F65 %30.40 in10.0 miSE (140°)5.8 mphClear
11:55 AM37.4 °F26.6 °F65 %30.39 in10.0 miCalmClear
12:15 PM39.2 °F26.6 °F61 %30.37 in9.0 miSSE (150°)4.6 mphClear
12:55 PM41.0 °F26.6 °F57 %30.35 in10.0 miSSE (150°)4.6 mphClear
1:15 PM41.0 °F28.4 °F61 %30.34 in9.0 miSE (140°)4.6 mphClear
1:35 PM41.0 °F28.4 °F61 %30.33 in10.0 miESE (120°)5.8 mphClear
1:55 PM42.8 °F28.4 °F57 %30.31 in10.0 miESE (120°)8.1 mphClear
2:15 PM42.8 °F28.4 °F57 %30.28 in10.0 miESE (120°)9.2 mphClear
2:35 PM42.8 °F28.4 °F57 %30.28 in10.0 miESE (110°)8.1 mphClear
2:55 PM42.8 °F26.6 °F53 %30.28 in10.0 miESE (120°)5.8 mphClear
3:15 PM44.6 °F28.4 °F53 %30.30 in10.0 miSSW (200°)4.6 mphClear
3:35 PM44.6 °F26.6 °F49 %30.30 in8.0 miCalmClear
3:55 PM44.6 °F28.4 °F53 %30.29 in8.0 miSouth (190°)4.6 mphClear
4:15 PM44.6 °F26.6 °F49 %30.28 in10.0 miCalmClear
4:35 PM41.0 °F28.4 °F61 %30.28 in10.0 miCalmClear
4:55 PM41.0 °F28.4 °F61 %30.27 in10.0 miCalmClear
5:15 PM39.2 °F28.4 °F65 %30.27 in10.0 miCalmClear
5:35 PM37.4 °F30.2 °F75 %30.26 in5.0 miEast (100°)4.6 mphHaze
5:55 PM35.6 °F30.2 °F81 %30.26 in10.0 miEast (100°)5.8 mphClear
6:35 PM35.6 °F28.4 °F75 %30.28 in10.0 miCalmClear
6:55 PM33.8 °F28.4 °F81 %30.27 in10.0 miCalmClear
7:15 PM35.6 °F28.4 °F75 %30.27 in10.0 miCalmClear
8:15 PM33.8 °F28.4 °F81 %30.25 in10.0 miSE (130°)3.5 mphClear
8:35 PM32.0 °F28.4 °F87 %30.26 in10.0 miCalmClear
8:55 PM32.0 °F28.4 °F87 %30.26 in7.0 miSouth (170°)3.5 mphClear
9:15 PM32.0 °F30.2 °F93 %30.25 in10.0 miSSE (160°)3.5 mphClear
9:35 PM32.0 °F28.4 °F87 %30.24 in9.0 miSE (130°)3.5 mphClear
10:15 PM30.2 °F28.4 °F93 %30.25 in5.0 miCalmClear
10:35 PM32.0 °F28.4 °F87 %30.25 in6.0 miCalmClear
11:15 PM30.2 °F28.4 °F93 %30.24 in5.0 miNNW (330°)4.6 mphClear
11:35 PM30.2 °F28.4 °F93 %30.23 in6.0 miNNW (340°)3.5 mphClear
11:55 PM30.2 °F28.4 °F93 %30.23 in7.0 miNNE (20°)3.5 mphClear
Hourly data recorded from K4M9, located miles away from Oxly, Missouri







STORIES FROM OUR PARTNERS